Date,TemperatureHighF,TemperatureAvgF,TemperatureLowF,DewpointHighF,DewpointAvgF,DewpointLowF,HumidityHigh,HumidityAvg,HumidityLow,PressureMaxIn,PressureMinIn,WindSpeedMaxMPH,WindSpeedAvgMPH,GustSpeedMaxMPH,PrecipitationSumIn
2013-1-1,40.7,37.6,29.3,30.3,25.8,14.2,68,62,52,29.99,29.80,13,3,13,0.01
2013-1-2,34.2,29.4,24.8,17.7,14.7,10.4,60,54,47,30.15,29.97,8,2,8,0.00
2013-1-3,33.1,30.4,27.0,19.8,17.6,16.0,64,59,52,30.17,30.04,7,2,7,0.00
2013-1-4,38.2,34.6,30.8,24.4,22.4,19.6,67,61,53,30.07,29.92,12,3,12,0.00
2013-1-5,45.4,36.5,32.6,26.0,22.6,19.4,70,57,45,30.25,29.98,9,2,9,0.00
2013-1-6,45.4,39.2,34.2,36.0,30.3,24.8,87,71,62,30.21,29.95,7,1,7,0.00
2013-1-7,49.3,40.0,31.9,31.5,27.3,23.0,73,61,45,30.38,30.02,8,1,8,0.00
2013-1-8,49.7,39.9,31.3,35.7,30.6,23.0,79,70,54,30.42,30.32,10,1,10,0.00
2013-1-9,49.3,41.8,33.3,40.7,34.8,27.8,86,76,63,30.37,30.11,13,1,13,0.00
2013-1-10,49.7,43.6,37.4,34.8,27.8,24.8,66,54,40,30.54,30.21,9,2,10,0.00
2013-1-11,46.1,41.2,34.7,43.7,33.5,24.7,91,74,59,30.52,30.07,4,1,4,0.47
2013-1-12,48.2,45.5,43.6,46.2,43.3,41.6,93,92,91,30.16,30.03,5,1,5,0.08
2013-1-13,47.7,45.7,43.6,46.1,43.9,41.7,95,93,91,30.14,29.99,6,1,6,0.00
2013-1-14,56.2,50.2,40.7,53.9,45.4,34.9,96,84,66,30.26,29.90,8,1,8,0.03
2013-1-15,40.7,38.5,36.9,35.6,31.6,28.0,87,76,66,30.32,30.18,5,1,5,0.11
2013-1-16,37.8,36.0,34.2,35.4,33.3,30.7,93,90,78,30.20,29.76,8,1,8,0.76
2013-1-17,46.1,40.2,36.7,35.5,31.7,26.5,90,72,57,30.07,29.88,9,2,9,0.00
2013-1-18,36.7,31.0,27.4,26.8,16.0,8.6,67,54,39,30.48,29.96,8,2,8,0.00
2013-1-19,50.0,39.8,30.1,36.4,27.0,15.5,74,61,45,30.39,29.92,11,2,11,0.00
2013-1-20,56.0,44.4,32.9,34.9,26.4,12.4,70,51,29,30.02,29.67,15,3,15,0.00
2013-1-21,34.6,31.3,27.7,23.3,16.0,10.4,74,53,43,30.08,29.80,8,1,8,0.00
2013-1-22,29.3,23.0,15.7,18.6,5.2,-4.8,64,47,34,30.17,29.79,12,3,12,0.00
2013-1-23,23.0,17.4,13.5,2.6,-1.7,-5.2,50,42,36,30.22,30.13,10,2,10,0.00
2013-1-24,26.6,19.0,13.3,5.0,1.0,-1.7,60,46,31,30.37,30.09,12,2,12,0.00
2013-1-25,25.9,20.4,15.1,16.0,6.5,-0.9,77,55,44,30.39,30.03,8,1,8,0.00
2013-1-26,28.4,21.9,15.1,17.1,10.9,7.5,75,63,48,30.34,30.00,8,1,8,0.00
2013-1-27,35.3,26.1,18.4,17.4,12.3,7.1,69,56,41,30.49,30.34,8,1,8,0.00
2013-1-28,34.6,30.8,24.3,32.0,24.9,14.1,91,79,64,30.47,29.98,6,1,6,0.23
2013-1-29,49.3,40.3,34.6,43.3,36.7,31.9,93,87,76,30.16,29.97,6,1,6,0.07
2013-1-30,52.0,47.7,40.9,50.3,45.9,38.2,95,93,90,30.07,29.38,10,2,10,0.01
2013-1-31,55.3,45.0,31.3,54.1,32.8,12.5,96,65,38,29.76,29.03,21,6,21,0.53
2013-2-1,32.8,30.0,25.9,15.8,13.1,8.6,57,49,38,30.20,29.76,17,4,17,0.00
2013-2-2,34.7,27.2,21.6,19.8,12.1,8.6,74,53,39,30.28,30.03,10,2,10,0.00
2013-2-3,32.8,28.4,24.8,24.6,20.7,18.2,81,73,65,30.03,29.76,6,1,6,0.05
2013-2-4,34.7,28.6,24.3,21.6,14.1,11.0,73,55,41,29.96,29.77,13,3,13,0.00
2013-2-5,31.9,30.7,29.0,27.6,24.6,17.2,84,78,61,29.95,29.87,5,1,5,0.01
2013-2-6,43.0,34.6,30.4,29.7,23.6,11.0,88,66,43,30.33,29.88,8,2,8,0.02
2013-2-7,33.7,30.1,25.9,23.1,14.5,10.8,68,52,41,30.50,30.30,6,1,6,0.00
2013-2-8,35.3,33.5,29.0,32.7,29.4,23.1,92,85,68,30.31,29.56,12,4,12,0.44
2013-2-9,32.8,28.2,22.7,26.7,20.5,10.8,93,74,53,30.30,29.69,12,3,12,0.01
2013-2-10,36.4,26.4,17.5,23.5,15.7,9.0,79,64,47,30.47,30.30,5,0,5,0.10
2013-2-11,43.6,39.1,29.2,41.7,36.3,23.5,94,90,79,30.31,29.64,6,0,6,0.65
2013-2-12,45.0,40.3,36.0,39.3,30.6,26.0,93,69,54,29.94,29.69,11,2,11,0.00
2013-2-13,45.5,36.8,29.2,31.6,27.3,23.7,82,69,54,29.93,29.66,5,0,5,0.00
2013-2-14,48.4,39.2,32.4,33.8,30.7,27.8,86,73,48,29.98,29.66,7,1,7,0.02
2013-2-15,52.6,40.3,32.8,41.8,33.9,28.7,87,79,63,30.00,29.90,6,1,6,0.00
2013-2-16,48.6,36.5,31.7,31.5,26.1,18.6,84,66,57,29.93,29.68,9,2,9,0.00
2013-2-17,36.0,28.9,19.6,20.0,8.4,1.3,62,42,30,29.94,29.61,14,4,14,0.00
2013-2-18,36.4,27.5,18.7,16.4,8.6,2.3,53,45,34,30.21,29.94,11,3,11,0.00
2013-2-19,46.3,39.4,30.2,41.3,31.8,15.8,91,75,52,30.19,29.64,12,2,12,0.14
2013-2-20,39.6,32.9,27.0,29.4,16.8,10.5,67,52,41,29.94,29.68,15,4,15,0.00
2013-2-21,37.4,30.0,25.6,16.8,13.8,11.2,61,51,41,30.24,29.93,14,4,14,0.00
2013-2-22,39.8,33.4,27.0,30.9,23.0,15.5,76,65,56,30.37,30.21,6,1,6,0.00
2013-2-23,43.7,39.6,37.1,41.3,36.1,30.8,92,87,76,30.25,29.75,9,2,9,0.36
2013-2-24,47.3,40.1,34.6,40.7,33.6,24.3,92,78,59,29.92,29.69,11,2,11,0.02
2013-2-25,49.7,39.6,32.0,32.1,27.3,23.9,74,62,46,30.20,29.92,7,1,7,0.00
2013-2-26,45.0,39.1,32.2,35.3,31.5,26.6,90,74,65,30.27,29.86,14,2,14,0.11
2013-2-27,49.5,45.0,38.0,47.3,42.0,35.3,94,89,80,29.86,29.46,19,4,19,0.74
2013-2-28,52.6,44.9,41.4,43.7,37.6,32.0,89,76,64,29.59,29.50,5,1,6,0.00
2013-3-1,45.7,41.3,36.2,34.8,31.1,27.3,78,67,57,29.73,29.55,9,2,9,0.00
2013-3-2,45.2,38.2,33.5,29.8,26.8,24.9,80,64,51,29.74,29.65,8,2,8,0.00
2013-3-3,41.6,34.8,30.2,27.8,22.9,18.6,81,62,47,29.71,29.61,9,2,9,0.00
2013-3-4,44.5,35.4,28.4,24.7,20.8,17.0,66,56,42,29.86,29.70,16,3,16,0.00
2013-3-5,49.5,39.9,31.3,31.3,25.9,20.5,70,58,45,29.98,29.85,9,2,9,0.00
2013-3-6,42.8,39.9,36.2,36.3,32.4,30.6,83,74,67,29.95,29.79,16,5,16,0.01
2013-3-7,39.4,35.9,33.5,33.7,31.6,29.6,92,84,78,30.03,29.85,13,4,13,0.10
2013-3-8,38.7,34.8,32.0,33.8,31.2,29.8,92,87,71,30.12,29.94,8,2,8,0.43
2013-3-9,53.8,46.5,34.0,32.8,28.8,24.2,75,52,34,30.30,30.16,8,2,8,0.11
2013-3-10,50.2,40.3,31.9,38.2,32.7,26.7,84,75,62,30.36,30.27,7,1,7,0.00
2013-3-11,54.2,46.3,40.5,45.9,41.0,34.8,90,82,73,30.30,30.07,6,2,6,0.00
2013-3-12,52.0,49.3,45.0,50.3,46.6,40.0,94,90,80,30.08,29.64,11,3,11,0.79
2013-3-13,54.7,45.4,36.9,40.1,33.5,26.3,89,65,39,29.85,29.74,13,2,13,0.00
2013-3-14,42.1,37.6,32.0,28.4,15.3,9.0,60,41,30,29.91,29.80,13,4,13,0.00
2013-3-15,46.4,39.4,31.0,31.1,20.9,10.4,59,48,37,29.94,29.68,11,3,11,0.00
2013-3-16,42.8,37.9,34.9,30.3,26.6,23.0,81,64,53,29.88,29.74,6,1,6,0.02
2013-3-17,39.8,36.1,31.0,29.7,22.1,16.1,83,58,42,30.27,29.87,9,1,9,0.00
2013-3-18,37.3,33.2,28.6,32.0,20.9,12.7,90,62,47,30.37,29.97,12,3,12,0.13
2013-3-19,42.7,38.1,34.7,38.1,34.8,31.4,93,88,78,29.98,29.64,12,2,12,0.86
2013-3-20,46.6,37.1,32.6,32.0,24.8,21.4,78,62,38,29.85,29.75,9,2,9,0.00
2013-3-21,40.9,35.2,33.3,27.5,24.1,17.5,77,64,50,29.80,29.59,9,1,9,0.01
2013-3-22,45.0,37.3,30.1,23.1,19.7,15.8,62,49,39,29.84,29.68,12,3,12,0.00
2013-3-23,47.5,41.0,32.9,25.1,21.7,18.7,61,47,35,29.90,29.77,12,3,12,0.00
2013-3-24,49.9,41.0,31.7,26.7,23.2,18.7,61,49,37,29.91,29.68,7,1,7,0.00
2013-3-25,40.0,38.1,35.8,34.6,30.6,26.7,88,75,59,29.69,29.41,10,2,10,0.26
2013-3-26,54.9,43.1,34.4,37.5,32.1,27.8,88,68,40,29.82,29.53,8,1,8,0.01
2013-3-27,54.9,45.8,36.9,32.7,27.7,24.1,63,50,34,29.92,29.81,10,2,10,0.00
2013-3-28,52.9,46.5,38.0,33.4,31.0,28.0,67,55,46,30.06,29.90,10,2,10,0.00
2013-3-29,59.6,49.9,41.9,34.7,30.3,27.3,62,48,34,30.10,30.00,9,2,9,0.00
2013-3-30,61.2,49.4,40.0,34.7,30.9,24.1,70,51,27,30.13,30.03,10,1,10,0.00
2013-3-31,55.1,46.9,37.8,43.7,36.8,28.8,89,69,53,30.09,29.62,8,2,8,0.17
2013-4-1,62.5,50.6,40.5,49.5,40.6,16.0,91,70,36,29.86,29.57,13,2,13,0.01
2013-4-2,47.5,41.4,34.4,21.0,16.9,12.4,50,37,28,30.03,29.86,13,3,13,0.00
2013-4-3,49.5,41.8,34.2,18.7,14.6,10.9,43,34,24,30.25,30.03,14,4,14,0.00
2013-4-4,52.7,42.5,32.4,33.5,23.2,14.1,70,47,33,30.35,30.06,10,2,10,0.00
2013-4-5,64.1,50.7,41.9,37.6,28.3,17.9,74,46,22,30.06,29.65,11,2,11,0.00
2013-4-6,53.5,44.9,37.4,28.6,20.1,12.1,60,39,21,30.29,29.94,12,2,12,0.00
2013-4-7,56.3,47.5,39.6,43.5,36.5,28.3,82,66,52,30.27,29.98,13,3,13,0.00
2013-4-8,71.5,56.8,43.9,50.8,44.2,39.1,85,65,41,30.04,29.93,5,1,5,0.00
2013-4-9,83.3,67.0,50.6,55.5,45.7,35.7,82,52,21,29.98,29.87,14,2,14,0.00
2013-4-10,75.2,62.2,55.3,53.6,48.4,43.9,85,62,45,29.95,29.78,10,1,10,0.44
2013-4-11,60.8,54.7,48.4,54.0,48.7,39.8,89,80,68,30.00,29.72,8,2,9,0.06
2013-4-12,48.8,44.1,41.4,42.5,40.4,37.7,92,87,69,29.99,29.65,14,4,14,0.83
2013-4-13,57.1,47.7,40.3,45.0,40.2,37.8,93,76,51,29.95,29.67,8,1,8,0.05
2013-4-14,61.0,53.3,46.4,50.0,37.3,29.0,90,58,34,30.18,29.92,12,2,12,0.01
2013-4-15,56.9,50.2,44.5,38.0,32.6,28.6,66,51,41,30.34,30.18,6,1,6,0.00
2013-4-16,64.1,57.7,47.7,52.0,49.2,40.4,85,74,61,30.33,30.10,12,3,12,0.00
2013-4-17,70.0,60.3,53.3,52.3,45.8,36.7,87,62,31,30.26,30.06,7,1,7,0.00
2013-4-18,61.7,54.4,49.3,50.9,44.7,41.3,88,70,54,30.32,30.06,7,2,7,0.00
2013-4-19,65.2,58.0,53.1,59.1,54.7,50.0,94,89,79,30.06,29.63,12,3,12,0.00
2013-4-20,60.5,55.3,50.0,57.1,39.9,27.0,93,60,34,30.24,29.64,12,3,12,0.29
2013-4-21,55.4,48.1,40.0,31.6,26.4,20.6,58,43,30,30.58,30.24,11,2,11,0.00
2013-4-22,55.8,47.8,40.3,36.3,32.6,29.5,70,56,40,30.61,30.44,10,2,10,0.00
2013-4-23,51.7,46.4,42.8,41.8,37.2,32.0,78,70,61,30.45,30.06,9,3,9,0.00
2013-4-24,65.2,53.6,43.2,49.3,44.4,37.1,88,72,52,30.03,29.82,9,2,9,0.00
2013-4-25,66.1,57.0,49.1,49.6,37.1,27.2,87,51,26,30.22,29.83,10,2,10,0.00
2013-4-26,70.4,57.9,44.8,42.7,37.7,33.5,77,49,29,30.36,30.22,8,1,8,0.00
2013-4-27,70.2,58.3,46.3,39.7,34.4,24.6,60,43,21,30.38,30.26,8,1,8,0.00
2013-4-28,69.7,58.3,47.9,48.6,40.3,33.0,78,53,30,30.28,30.18,7,1,7,0.00
2013-4-29,57.1,55.4,53.6,49.3,46.8,44.4,78,73,65,30.21,30.15,4,1,4,0.03
2013-4-30,67.0,58.4,51.7,49.1,39.1,25.7,77,52,25,30.30,30.16,8,1,8,0.00
2013-5-1,68.8,57.1,45.4,46.2,40.0,33.8,69,54,30,30.44,30.29,8,1,8,0.00
2013-5-2,71.1,58.9,46.6,49.8,44.2,39.8,81,60,45,30.44,30.30,5,1,5,0.00
2013-5-3,66.1,57.3,51.8,46.1,42.3,37.4,73,58,40,30.42,30.33,7,2,7,0.00
2013-5-4,67.9,56.0,47.5,48.8,43.3,39.7,82,64,43,30.33,30.23,7,1,7,0.00
2013-5-5,63.2,53.9,46.4,45.0,41.5,38.3,75,63,47,30.26,30.19,6,1,6,0.00
2013-5-6,66.1,56.6,48.1,52.1,46.7,41.8,80,70,58,30.23,30.12,5,1,5,0.00
2013-5-7,71.5,60.7,50.8,60.1,53.2,45.1,85,77,67,30.13,30.05,6,1,6,0.00
2013-5-8,63.5,60.5,55.6,60.7,57.0,52.4,92,88,81,30.07,29.95,7,1,7,0.09
2013-5-9,67.9,59.8,55.6,60.6,56.1,52.4,93,88,74,29.98,29.84,6,1,6,0.16
2013-5-10,78.5,65.9,54.5,66.4,56.6,51.3,92,74,52,29.95,29.85,5,1,5,0.00
2013-5-11,65.7,62.1,60.8,61.8,58.5,55.4,92,88,78,29.87,29.68,6,1,6,0.57
2013-5-12,70.7,65.4,55.8,58.4,43.2,28.4,91,47,29,29.87,29.64,10,4,11,0.00
2013-5-13,60.7,54.6,49.7,35.8,31.7,26.6,54,42,33,30.04,29.94,11,2,11,0.00
2013-5-14,62.5,53.9,45.2,41.8,34.6,27.8,65,50,30,30.07,29.98,6,1,6,0.00
2013-5-15,65.2,58.1,50.2,54.6,48.6,41.0,82,71,52,30.03,29.65,8,1,9,0.01
2013-5-16,75.2,64.8,57.4,57.3,53.4,47.4,87,69,46,29.78,29.65,5,1,5,0.00
2013-5-17,73.1,65.5,59.4,52.2,45.4,40.3,76,49,34,30.16,29.78,7,1,7,0.00
2013-5-18,66.2,60.8,56.5,53.5,50.8,46.0,78,70,58,30.27,30.16,5,0,5,0.01
2013-5-19,59.4,57.7,56.9,56.0,53.6,48.9,93,87,69,30.28,30.13,7,1,7,0.62
2013-5-20,74.0,64.6,58.0,68.1,61.1,55.6,95,89,80,30.13,29.93,6,1,6,0.04
2013-5-21,80.6,70.3,62.6,74.0,64.6,59.8,94,82,72,29.93,29.81,6,1,6,0.00
2013-5-22,72.0,66.9,62.1,66.9,62.6,58.9,89,86,81,29.89,29.81,4,1,4,0.00
2013-5-23,73.1,66.4,63.5,67.2,62.7,60.7,94,88,80,29.87,29.73,7,2,7,0.10
2013-5-24,67.7,60.5,50.8,65.0,57.4,47.0,95,89,78,29.84,29.64,9,1,9,0.21
2013-5-25,53.5,51.8,50.4,46.2,42.1,39.4,82,70,64,29.93,29.83,10,4,10,0.00
2013-5-26,67.1,55.3,49.0,44.1,40.3,37.2,71,58,34,30.15,29.89,10,2,10,0.00
2013-5-27,72.2,60.6,49.5,49.7,44.0,38.5,75,56,35,30.20,30.08,8,1,8,0.00
2013-5-28,70.9,60.0,54.4,55.9,51.9,47.3,90,76,50,30.19,30.08,0,0,0,0.46
2013-5-29,74.9,65.7,57.8,67.4,60.7,54.5,92,84,74,30.08,29.97,0,0,0,0.00
2013-5-30,89.6,75.6,64.4,75.6,65.0,59.9,90,71,55,30.08,30.02,0,0,0,0.00
2013-5-31,88.9,73.8,67.3,75.6,64.4,60.9,84,73,59,30.08,29.96,0,0,0,0.00
2013-6-1,87.1,74.8,67.9,72.5,65.0,61.7,82,72,59,30.00,29.88,0,0,0,0.00
2013-6-2,81.4,71.3,65.7,69.6,63.4,60.8,85,76,66,29.90,29.76,0,0,0,0.00
2013-6-3,74.0,69.4,66.1,69.6,65.2,56.0,92,87,65,29.83,29.76,0,0,0,0.42
2013-6-4,76.0,67.4,60.1,57.2,49.3,42.8,66,53,34,30.06,29.82,0,0,0,0.00
2013-6-5,73.4,66.2,58.0,54.4,47.7,44.0,75,52,38,30.16,30.05,0,0,0,0.00
2013-6-6,74.5,65.6,60.7,63.9,56.4,50.1,83,73,49,30.11,29.96,0,0,0,0.00
2013-6-7,63.7,62.1,60.1,61.8,59.6,57.7,95,91,82,29.97,29.55,0,0,0,2.32
2013-6-8,74.9,66.3,57.4,67.4,61.8,55.7,96,86,74,29.99,29.49,0,0,0,0.66
2013-6-9,78.8,70.6,61.9,66.7,61.2,58.2,91,73,54,30.13,29.99,0,0,0,0.00
2013-6-10,70.4,66.5,64.1,65.1,62.7,61.2,94,88,80,30.12,29.79,0,0,0,0.98
2013-6-11,79.6,72.4,65.3,71.7,65.5,60.1,95,80,63,29.79,29.56,0,0,0,0.16
2013-6-12,77.4,71.9,67.0,61.1,56.3,52.5,73,58,45,29.80,29.64,0,0,0,0.00
2013-6-13,67.1,64.3,57.2,60.7,58.5,54.8,92,82,68,29.80,29.39,0,0,0,1.04
2013-6-14,68.8,60.4,54.2,58.1,54.7,51.8,93,82,65,29.82,29.42,0,0,0,0.15
2013-6-15,79.6,70.0,60.8,64.3,56.7,49.1,84,65,38,29.94,29.82,0,0,0,0.00
2013-6-16,79.0,71.3,62.8,66.4,61.7,56.9,84,72,60,29.93,29.72,0,0,0,0.00
2013-6-17,83.9,75.2,69.3,70.4,66.2,63.5,84,74,62,29.87,29.80,0,0,0,0.07
2013-6-18,80.8,70.4,67.1,72.3,65.2,63.2,89,84,69,29.85,29.78,0,0,0,0.22
2013-6-19,76.7,69.0,61.4,63.9,55.9,48.4,89,65,42,30.12,29.82,0,0,0,0.00
2013-6-20,76.3,68.5,60.5,59.9,56.4,53.6,80,66,50,30.23,30.11,0,0,0,0.00
2013-6-21,78.1,70.7,63.2,60.1,57.0,54.7,77,63,49,30.26,30.21,0,0,0,0.00
2013-6-22,79.9,71.6,63.7,65.3,60.0,55.8,81,67,55,30.22,30.11,0,0,0,0.00
2013-6-23,82.4,74.5,67.3,71.3,65.3,58.3,86,73,64,30.15,30.03,0,0,0,0.03
2013-6-24,90.4,80.1,72.5,78.0,70.7,64.9,91,74,57,30.04,29.90,0,0,0,0.05
2013-6-25,89.6,82.7,73.3,73.6,69.1,64.4,77,64,53,29.95,29.76,0,0,0,0.00
2013-6-26,86.2,80.6,75.6,70.8,68.2,66.0,79,67,57,29.80,29.72,0,0,0,0.01
2013-6-27,83.7,77.2,74.7,73.3,70.0,68.3,87,78,69,29.79,29.55,0,0,0,0.01
2013-6-28,83.3,77.8,72.5,73.0,70.5,67.8,87,78,69,29.54,29.44,0,0,0,0.00
2013-6-29,81.2,75.9,71.8,70.9,68.8,66.1,85,79,70,29.66,29.45,0,0,0,0.00
2013-6-30,84.1,75.2,71.5,76.4,70.1,66.5,89,84,75,29.87,29.66,0,0,0,0.01
2013-7-1,76.3,73.4,72.2,72.5,70.4,69.1,92,90,87,30.01,29.85,0,0,0,0.95
2013-7-2,78.1,73.9,71.8,74.0,70.7,69.0,92,90,83,30.14,30.00,0,0,0,0.33
2013-7-3,81.7,75.0,70.6,74.9,71.1,67.8,92,88,78,30.20,30.12,0,0,0,0.11
2013-7-4,85.0,78.2,72.9,77.1,72.9,70.0,93,84,75,30.20,30.11,0,0,0,0.00
2013-7-5,90.0,80.6,74.5,79.0,72.9,70.3,89,78,68,30.16,30.04,0,0,0,0.00
2013-7-6,91.4,84.0,76.9,80.1,73.5,71.0,85,71,56,30.09,29.97,0,0,0,0.00
2013-7-7,91.8,84.9,80.3,77.1,73.9,68.9,77,70,61,30.01,29.89,0,0,0,0.00
2013-7-8,90.4,82.2,75.6,74.5,69.5,66.7,76,66,56,29.99,29.92,0,0,0,0.00
2013-7-9,88.9,81.3,75.6,74.7,70.3,66.9,78,70,58,30.02,29.94,0,0,0,0.00
2013-7-10,87.3,79.8,75.2,76.9,72.2,69.1,83,78,70,29.97,29.76,0,0,0,0.08
2013-7-11,84.1,78.8,75.4,73.3,70.6,68.4,85,76,61,29.86,29.75,0,0,0,0.04
2013-7-12,78.8,74.1,68.9,69.6,67.3,64.5,92,80,68,30.03,29.85,0,0,0,0.30
2013-7-13,81.7,75.4,68.9,76.8,71.9,66.5,94,89,81,30.21,30.03,0,0,0,0.02
2013-7-14,89.5,81.0,74.3,76.8,73.5,71.3,91,79,65,30.26,30.17,0,0,0,0.00
2013-7-15,94.1,86.1,78.5,77.2,72.9,70.4,81,66,49,30.18,30.05,0,0,0,0.00
2013-7-16,92.9,86.3,78.8,73.9,68.7,63.7,76,57,41,30.12,30.05,0,0,0,0.00
2013-7-17,95.4,86.7,78.8,74.5,69.9,67.3,71,58,46,30.12,30.00,0,0,0,0.00
2013-7-18,96.3,87.1,80.3,77.3,73.6,68.0,76,65,41,30.00,29.89,0,0,0,0.00
2013-7-19,95.6,88.1,83.0,82.0,76.7,74.6,79,69,59,29.91,29.73,3,0,3,0.00
2013-7-20,93.4,86.6,81.7,75.7,72.7,68.7,76,64,48,29.76,29.65,8,2,9,0.00
2013-7-21,88.4,82.0,77.8,71.2,67.7,61.6,77,63,48,29.89,29.75,6,1,6,0.00
2013-7-22,86.2,79.5,76.0,75.2,72.4,69.6,86,79,67,29.89,29.73,2,0,2,0.11
2013-7-23,85.9,79.7,74.5,75.7,73.0,70.2,91,81,69,29.73,29.49,0,0,0,0.38
2013-7-24,85.1,79.5,72.5,71.3,66.5,56.3,84,65,51,29.84,29.53,0,0,0,0.00
2013-7-25,72.4,66.1,64.1,59.9,56.6,52.7,86,72,57,29.97,29.84,0,0,0,0.02
2013-7-26,79.9,71.1,63.7,66.1,62.0,58.8,86,74,54,29.97,29.89,0,0,0,0.00
2013-7-27,85.9,75.4,68.4,73.3,65.9,63.2,84,73,57,29.99,29.89,5,0,5,0.00
2013-7-28,77.9,74.1,69.7,70.2,67.8,64.5,88,81,70,29.92,29.85,6,1,6,0.05
2013-7-29,85.5,78.2,71.5,73.5,67.0,53.8,90,70,41,30.01,29.87,6,1,6,0.02
2013-7-30,83.5,75.9,67.3,61.3,56.9,53.8,72,53,41,30.08,30.00,8,1,8,0.00
2013-7-31,81.4,74.5,67.3,65.1,60.2,56.5,74,62,48,30.07,29.97,4,0,4,0.00
2013-8-1,76.0,71.6,68.6,67.6,65.6,63.6,90,81,73,29.97,29.75,0,0,0,0.44
2013-8-2,84.2,77.1,68.2,72.2,65.8,60.8,92,70,49,29.83,29.70,0,0,0,0.00
2013-8-3,78.8,74.4,72.4,67.6,64.8,62.3,77,72,64,29.84,29.76,5,0,5,0.03
2013-8-4,82.3,74.2,66.6,65.2,58.5,51.3,81,60,39,29.87,29.76,8,1,8,0.00
2013-8-5,79.0,71.7,63.0,57.6,51.8,45.6,68,51,34,29.97,29.87,0,0,0,0.00
2013-8-6,82.1,73.5,64.6,63.5,58.1,55.4,80,60,43,30.05,29.95,5,0,5,0.00
2013-8-7,79.2,74.2,71.3,67.0,63.0,58.7,79,68,61,30.07,29.99,6,1,6,0.00
2013-8-8,80.5,74.1,69.8,73.3,69.4,65.4,90,85,77,30.00,29.92,3,0,3,0.56
2013-8-9,80.6,76.2,73.4,75.0,72.4,70.4,92,88,81,29.95,29.72,5,1,5,0.01
2013-8-10,84.2,78.2,71.5,72.4,64.0,57.4,87,63,46,29.96,29.76,6,1,6,0.00
2013-8-11,83.2,74.1,66.1,63.9,57.7,50.8,73,57,42,30.03,29.95,5,0,5,0.00
2013-8-12,78.5,74.0,70.9,70.7,68.1,63.9,89,82,71,29.95,29.84,2,0,2,0.47
2013-8-13,74.0,71.8,68.6,71.6,68.6,66.0,92,90,86,29.89,29.66,0,0,0,0.73
2013-8-14,75.6,69.1,61.7,67.8,55.7,49.1,92,64,48,29.99,29.68,0,0,0,0.00
2013-8-15,77.6,70.7,59.8,59.1,54.4,49.0,78,58,41,30.10,29.99,0,0,0,0.00
2013-8-16,80.1,71.7,62.1,65.2,57.4,54.4,81,62,43,30.16,30.08,0,0,0,0.00
2013-8-17,80.8,72.6,63.4,63.7,59.4,56.7,82,64,48,30.23,30.16,0,0,0,0.00
2013-8-18,76.5,71.3,67.7,63.6,61.5,58.6,82,72,56,30.21,30.08,0,0,0,0.00
2013-8-19,78.3,72.8,65.9,66.2,61.8,58.4,80,69,58,30.09,29.98,0,0,0,0.00
2013-8-20,86.2,76.7,67.7,69.2,66.0,62.6,85,71,51,30.08,30.00,0,0,0,0.00
2013-8-21,88.9,79.3,70.9,71.3,67.7,62.4,85,69,44,30.13,30.01,0,0,0,0.00
2013-8-22,81.5,75.8,73.3,73.9,70.2,68.5,89,83,76,30.03,29.83,0,0,0,0.08
2013-8-23,82.1,75.8,71.3,69.8,61.9,55.1,89,64,43,30.05,29.82,0,0,0,0.00
2013-8-24,79.0,71.9,65.2,59.7,57.1,53.1,74,60,45,30.31,30.05,0,0,0,0.00
2013-8-25,83.5,72.7,62.3,62.2,57.8,53.5,82,62,41,30.34,30.19,0,0,0,0.00
2013-8-26,83.5,75.4,69.1,67.5,62.1,56.7,75,64,55,30.20,29.87,0,0,0,0.02
2013-8-27,85.7,78.3,72.7,70.8,68.1,66.0,84,72,56,29.87,29.76,0,0,0,0.03
2013-8-28,86.9,78.3,72.0,72.6,69.2,66.5,85,74,57,29.86,29.80,0,0,0,0.00
2013-8-29,80.3,75.3,71.8,70.1,66.9,64.2,86,76,61,29.99,29.83,0,0,0,0.00
2013-8-30,82.4,75.2,70.2,71.2,67.4,63.0,83,77,67,29.99,29.82,0,0,0,0.00
2013-8-31,83.9,77.2,73.4,74.5,70.7,68.1,85,80,72,29.84,29.75,0,0,0,0.00
2013-9-1,84.4,77.7,74.2,75.7,72.5,70.3,89,84,74,29.82,29.76,0,0,0,0.02
2013-9-2,79.2,76.8,75.4,74.9,73.2,71.5,91,88,85,29.77,29.67,0,0,0,0.01
2013-9-3,83.0,77.1,72.9,74.3,65.9,57.4,92,70,50,29.83,29.69,0,0,0,0.02
2013-9-4,83.0,75.2,66.8,60.8,58.1,51.1,74,57,37,29.94,29.83,0,0,0,0.00
2013-9-5,80.6,73.7,67.0,62.6,55.3,45.1,71,54,34,30.09,29.87,0,0,0,0.00
2013-9-6,73.1,66.2,59.0,49.9,46.8,43.4,65,50,38,30.19,30.06,0,0,0,0.00
2013-9-7,80.1,67.7,56.7,58.2,52.6,48.2,76,60,38,30.07,29.85,0,0,0,0.00
2013-9-8,82.3,74.3,67.0,64.5,56.9,44.8,75,56,37,30.02,29.76,0,0,0,0.00
2013-9-9,74.7,67.6,59.6,59.2,49.9,44.8,70,54,37,30.19,30.02,0,0,0,0.00
2013-9-10,79.4,73.9,69.5,70.6,66.6,59.1,84,78,70,30.12,30.01,0,0,0,0.02
2013-9-11,86.9,76.8,73.4,74.7,70.3,68.9,88,81,66,30.07,29.94,0,0,0,0.00
2013-9-12,84.8,77.1,71.8,74.2,70.5,67.2,86,80,70,29.95,29.63,0,0,0,0.12
2013-9-13,78.1,71.7,63.5,68.1,61.6,50.8,90,72,52,29.78,29.58,0,0,0,0.07
2013-9-14,69.7,63.1,57.1,51.0,49.0,46.8,71,60,50,30.06,29.77,0,0,0,0.00
2013-9-15,72.7,63.2,52.4,56.6,49.2,44.0,77,61,41,30.16,30.03,0,0,0,0.00
2013-9-16,71.3,65.6,61.4,58.9,55.2,49.3,82,70,53,30.17,29.98,0,0,0,0.01
2013-9-17,65.3,58.9,51.5,49.5,41.4,37.3,67,53,39,30.36,30.17,0,0,0,0.00
2013-9-18,72.4,61.3,49.5,52.0,47.3,42.6,79,62,41,30.29,30.13,0,0,0,0.00
2013-9-19,76.1,65.4,55.1,56.7,52.5,48.3,79,65,43,30.13,30.02,0,0,0,0.00
2013-9-20,78.7,66.3,56.7,62.4,56.4,51.0,84,71,48,30.03,29.95,0,0,0,0.00
2013-9-21,73.8,69.4,59.6,67.8,64.4,54.1,89,84,80,29.95,29.63,0,0,0,0.35
2013-9-22,70.9,65.5,58.0,66.4,54.4,44.2,92,69,47,29.84,29.59,0,0,0,0.99
2013-9-23,66.8,59.5,52.2,46.9,44.7,41.2,73,59,45,29.98,29.84,0,0,0,0.00
2013-9-24,72.4,60.8,49.7,48.5,45.4,41.4,75,58,39,29.98,29.80,0,0,0,0.00
2013-9-25,72.2,63.3,52.7,52.7,48.4,44.8,76,60,40,29.88,29.81,0,0,0,0.00
2013-9-26,67.0,61.8,56.7,58.9,54.5,50.4,87,77,70,30.03,29.87,0,0,0,0.00
2013-9-27,67.1,61.3,55.4,56.9,52.8,50.1,85,74,61,30.20,30.03,0,0,0,0.00
2013-9-28,74.2,64.8,56.7,57.3,53.9,51.4,85,69,51,30.25,30.17,0,0,0,0.00
2013-9-29,71.3,62.5,55.8,57.5,53.4,50.3,87,73,55,30.17,30.01,0,0,0,0.00
2013-9-30,73.3,62.6,53.6,58.2,53.8,48.6,88,74,50,30.02,29.91,0,0,0,0.00
2013-10-1,79.9,68.1,56.5,60.1,56.2,51.2,84,68,41,29.93,29.82,0,0,0,0.00
2013-10-2,82.4,71.7,60.5,63.2,59.9,55.0,83,68,50,29.95,29.84,0,0,0,0.00
2013-10-3,79.0,69.9,61.6,60.3,57.4,53.8,81,66,46,30.05,29.94,0,0,0,0.00
2013-10-4,80.5,68.0,63.4,68.5,60.9,57.8,86,78,67,30.01,29.95,0,0,0,0.00
2013-10-7,76.0,70.6,63.0,70.1,66.3,55.8,92,86,77,29.89,29.74,0,0,0,0.27
2013-10-8,67.9,61.5,56.5,52.8,47.5,43.2,76,61,45,30.25,29.94,0,0,0,0.00
2013-10-9,63.9,59.1,54.0,50.7,47.9,43.5,76,66,59,30.31,30.20,0,0,0,0.00
2013-10-10,64.6,59.8,56.5,57.6,53.2,47.9,85,79,71,30.21,29.99,0,0,0,0.00
2013-10-11,67.9,63.9,60.5,59.9,57.3,54.4,86,79,69,30.01,29.92,0,0,0,0.00
2013-10-12,73.1,65.2,59.8,56.2,50.5,37.4,74,60,31,30.20,29.98,0,0,0,0.00
2013-10-13,68.6,61.2,56.5,53.7,50.9,48.2,79,69,55,30.30,30.19,0,0,0,0.00
2013-10-14,68.4,58.2,50.9,52.7,48.8,44.3,80,71,53,30.29,30.18,0,0,0,0.00
2013-10-15,73.6,59.6,50.9,56.3,49.5,43.4,89,71,43,30.19,30.03,0,0,0,0.00
2013-10-16,65.3,61.0,56.2,59.4,55.5,49.9,87,82,79,30.03,29.84,0,0,0,0.00
2013-10-17,71.8,65.1,62.3,65.0,60.4,58.2,90,85,72,29.85,29.63,0,0,0,0.00
2013-10-18,70.0,63.9,58.5,62.2,50.0,43.6,90,62,44,29.90,29.60,0,0,0,0.03
2013-10-19,65.3,58.0,49.3,56.1,48.2,42.0,83,70,58,29.91,29.67,0,0,0,0.01
2013-10-20,65.5,57.7,51.5,56.0,43.2,36.9,85,60,39,29.98,29.66,0,0,0,0.02
2013-10-21,69.8,57.1,47.0,47.8,43.0,39.6,78,61,38,30.07,29.90,0,0,0,0.00
2013-10-22,72.0,60.4,52.9,53.4,48.0,40.8,81,64,48,29.91,29.66,0,0,0,0.00
2013-10-23,55.3,51.4,48.6,43.1,39.0,35.2,74,63,53,29.72,29.52,0,0,0,0.00
2013-10-24,57.8,49.2,43.6,36.5,32.6,27.0,71,54,38,29.91,29.66,0,0,0,0.00
2013-10-25,54.4,47.6,41.9,35.0,31.7,29.6,66,54,43,30.13,29.90,0,0,0,0.00
2013-10-26,59.2,48.9,39.4,39.2,34.0,31.9,76,58,38,30.13,29.82,0,0,0,0.00
2013-10-27,61.4,53.6,48.1,37.5,34.3,31.8,58,48,38,30.03,29.76,0,0,0,0.00
2013-10-28,63.9,51.5,41.2,39.2,35.1,31.8,73,55,37,30.22,30.03,0,0,0,0.00
2013-10-29,59.9,50.5,45.7,39.4,35.8,33.4,70,58,42,30.32,30.21,0,0,0,0.00
2013-10-30,60.1,52.7,45.0,51.5,44.2,35.5,82,73,66,30.26,30.09,0,0,0,0.00
2013-10-31,65.3,58.9,51.8,60.2,54.6,46.5,89,85,82,30.13,29.73,0,0,0,0.02
2013-11-1,66.2,62.6,59.0,61.2,58.5,55.5,92,86,74,29.73,29.47,0,0,0,0.09
2013-11-2,68.2,59.3,54.2,55.6,50.0,41.7,89,73,54,29.68,29.53,0,0,0,0.00
2013-11-3,57.2,48.9,40.0,42.8,35.8,23.7,74,61,53,30.33,29.68,0,0,0,0.00
2013-11-4,50.0,41.3,35.8,26.0,22.6,18.7,55,48,37,30.55,30.33,0,0,0,0.00
2013-11-5,59.0,48.1,40.1,42.0,35.8,25.1,76,63,50,30.55,30.39,0,0,0,0.00
2013-11-6,64.1,53.5,42.8,54.1,46.1,37.4,88,76,57,30.39,29.97,0,0,0,0.00
2013-11-7,62.5,55.7,44.6,58.9,50.9,34.9,92,84,65,29.97,29.65,0,0,0,0.14
2013-11-8,54.4,46.0,42.1,35.5,30.8,25.7,71,56,39,30.10,29.81,0,0,0,0.00
2013-11-9,48.8,44.8,37.3,35.4,29.8,26.3,67,56,47,30.18,29.90,0,0,0,0.00
2013-11-10,64.1,50.8,44.8,42.0,35.4,29.6,68,56,37,29.94,29.70,0,0,0,0.00
2013-11-11,55.3,49.4,43.2,35.2,30.7,26.6,54,49,40,30.10,29.90,0,0,0,0.00
2013-11-12,51.1,40.2,32.2,37.8,28.2,17.6,83,63,50,30.25,29.90,0,0,0,0.09
2013-11-13,42.8,34.4,29.5,22.1,17.8,14.9,62,51,38,30.34,30.24,0,0,0,0.00
2013-11-14,51.3,42.1,33.8,26.5,23.1,19.7,62,48,33,30.26,30.13,0,0,0,0.00
2013-11-15,55.8,45.1,37.1,40.3,33.4,25.3,75,64,49,30.24,30.14,0,0,0,0.00
2013-11-16,61.6,49.3,43.4,51.5,42.1,34.8,87,76,66,30.31,30.20,0,0,0,0.06
2013-11-17,60.3,56.1,45.7,57.7,53.3,41.8,92,90,86,30.24,29.78,0,0,0,0.00
2013-11-18,68.0,59.2,52.6,57.0,46.1,28.4,94,65,38,29.79,29.59,0,0,0,0.08
2013-11-19,53.6,45.5,37.4,32.1,27.0,22.9,56,49,40,30.31,29.74,0,0,0,0.00
2013-11-20,46.4,37.4,32.2,23.2,19.5,15.3,61,49,33,30.58,30.31,0,0,0,0.00
2013-11-21,52.2,42.3,30.6,41.5,31.7,20.2,75,66,54,30.58,30.37,0,0,0,0.00
2013-11-22,55.1,51.8,48.6,50.7,46.7,41.0,90,83,75,30.37,29.86,0,0,0,0.03
2013-11-23,53.5,44.4,32.4,48.4,28.5,13.2,86,55,38,29.99,29.86,0,0,0,0.00
2013-11-24,32.4,27.5,24.3,13.8,6.5,0.3,48,41,27,30.34,29.96,0,0,0,0.00
2013-11-25,38.2,29.4,23.4,18.1,12.7,6.4,57,50,39,30.45,30.31,0,0,0,0.00
2013-11-26,51.5,40.0,34.6,48.9,29.1,20.0,91,66,50,30.31,29.75,0,0,0,0.23
2013-11-27,60.7,48.9,35.8,58.8,45.9,27.2,94,89,70,29.75,29.28,0,0,0,0.98
2013-11-28,38.0,32.7,29.9,27.6,18.9,14.2,72,57,42,30.45,29.69,0,0,0,0.01
2013-11-29,43.9,34.4,30.2,26.5,21.3,18.7,67,59,45,30.70,30.44,0,0,0,0.00
2013-11-30,38.9,32.7,26.5,29.8,21.7,16.4,73,64,51,30.73,30.33,0,0,0,0.00
2013-12-1,51.3,43.4,37.6,41.1,34.5,29.8,81,71,61,30.33,29.98,0,0,0,0.00
2013-12-2,49.7,43.5,38.9,41.9,37.1,33.3,84,78,67,29.99,29.85,0,0,0,0.00
2013-12-3,52.2,43.3,37.8,41.5,36.3,32.6,87,77,60,29.97,29.83,0,0,0,0.00
2013-12-4,52.4,43.9,36.4,43.6,37.8,31.7,86,79,66,30.11,29.97,0,0,0,0.00
2013-12-5,54.9,52.3,47.2,52.9,50.0,43.6,93,92,86,30.09,29.91,0,0,0,0.04
2013-12-6,54.9,47.8,37.8,53.2,45.6,35.1,94,92,90,30.10,29.84,0,0,0,0.46
2013-12-7,43.6,37.5,32.8,36.9,31.1,22.0,92,78,62,30.45,30.05,0,0,0,0.14
2013-12-8,33.7,31.5,29.2,28.6,23.4,20.1,88,72,64,30.56,30.33,0,0,0,0.00
2013-12-9,41.0,37.1,31.9,39.2,35.0,29.1,93,92,89,30.34,29.90,0,0,0,0.18
2013-12-10,36.4,33.9,29.9,33.8,30.7,22.2,92,88,73,30.09,29.80,0,0,0,0.08
2013-12-11,36.2,30.5,26.8,23.7,20.1,17.8,73,65,54,30.30,30.08,0,0,0,0.01
2013-12-12,32.2,26.7,24.1,19.4,12.4,8.6,67,55,44,30.32,30.13,0,0,0,0.00
2013-12-13,36.9,29.5,23.6,20.0,15.1,8.4,64,55,45,30.29,30.09,0,0,0,0.00
2013-12-14,40.9,28.4,24.3,39.0,22.7,18.2,93,79,64,30.47,29.73,0,0,0,0.06
2013-12-15,42.5,36.6,32.8,40.6,31.5,23.6,93,82,68,29.82,29.45,0,0,0,0.79
2013-12-16,34.4,30.0,24.1,24.7,16.8,12.5,71,58,47,30.20,29.80,0,0,0,0.00
2013-12-17,33.5,28.0,24.1,30.5,21.5,13.7,89,77,58,30.19,29.87,0,0,0,0.05
2013-12-18,37.8,30.5,25.0,29.0,23.1,20.4,85,74,63,30.14,29.86,0,0,0,0.01
2013-12-19,44.5,36.4,28.4,32.5,27.4,21.3,78,70,58,30.15,30.00,0,0,0,0.03
2013-12-20,49.7,42.5,34.9,40.9,35.1,29.3,87,75,60,30.08,29.94,0,0,0,0.00
2013-12-21,56.2,47.9,41.0,50.2,44.1,37.5,92,87,78,29.98,29.87,0,0,0,0.00
2013-12-22,59.2,55.1,50.0,55.6,52.1,47.2,94,90,86,29.94,29.80,0,0,0,0.00
2013-12-23,56.5,52.5,42.7,54.6,50.0,37.8,94,91,83,30.11,29.83,0,0,0,0.50
2013-12-24,42.8,37.7,28.8,38.2,27.8,12.9,84,68,50,30.29,30.04,0,0,0,0.01
2013-12-25,32.2,26.8,21.6,20.3,13.0,8.8,66,56,47,30.50,30.29,0,0,0,0.00
2013-12-26,36.4,32.6,28.3,27.2,24.3,20.3,76,71,63,30.40,30.11,0,0,0,0.00
2013-12-27,41.4,34.6,28.8,25.9,23.4,20.6,76,64,48,30.33,30.23,0,0,0,0.00
2013-12-28,51.8,40.7,29.7,33.5,28.8,22.9,82,64,46,30.25,30.03,0,0,0,0.00
2013-12-29,47.9,43.0,40.5,45.7,36.9,30.1,93,80,62,30.04,29.32,0,0,0,1.01
2013-12-30,45.0,36.7,25.7,39.8,29.5,14.2,91,76,59,30.16,29.65,0,0,0,0.00
2013-12-31,32.9,28.1,23.6,23.1,16.9,12.0,68,63,52,30.24,30.03,0,0,0,0.00
2014-1-1,33.7,29.5,24.1,20.9,16.8,10.4,64,59,52,30.37,30.21,0,0,0,0.01
2014-1-2,32.4,28.0,19.8,25.7,22.7,16.5,88,81,63,30.21,29.60,0,0,0,0.00